User: anonymous
Location: Mentone
(34.5413°N, 85.5351°W)
Time: 04:29:05
(UTC-05:00)
Language:

S-56A Canister/Altair - Orbit

View from above orbital plane
View from above orbital plane
View from above satellite
View from above satellite

Ground track
Ground track

The orbit data is extracted from the following two-line orbital elements,

1 00082U 61004B   14254.81115756 -.00000011  00000-0  35975-4 0  7164
2 00082 038.8558 071.7465 1176652 004.8683 356.2376 12.25639956549408
Epoch (UTC): 11 September 2014 19:28:04
Eccentricity: 0.1176652
inclination: 38.8558°
perigee height: 633 km
apogee height: 2503 km
right ascension of ascending node: 71.7465°
argument of perigee: 4.8683°
revolutions per day: 12.25639956
mean anomaly at epoch: 356.2376°
orbit number at epoch: 54940

The dashed part of the orbit path shows where the satellite is in the earth's shadow,  

DLR